Weather History for Tishomingo Cnty AP, Belmont,, MS

Change the Weather History Date:

Monday, March 31, 2014

  Actual Average (KTUP) Record (KTUP)
Temperature  
Mean Temperature 54 °F 58 °F  
Max Temperature 77 °F 70 °F 86 °F (1978)
Min Temperature 33 °F 46 °F 28 °F (1975)
Degree Days  
Heating Degree Days 10 8  
Month to date heating degree days 355  
Since 1 July heating degree days 2786  
Cooling Degree Days 0 1  
Month to date cooling degree days 14  
Year to date cooling degree days 16  
Growing Degree Days 4 (Base 50)    
Moisture  
Dew Point 34 °F    
Average Humidity 51    
Maximum Humidity 97    
Minimum Humidity 16    
Precipitation  
Precipitation 0.00 in 0.15 in 3.56 in (1933)
Month to date precipitation 4.82  
Year to date precipitation 14.26  
Snow  
Snow 0.00 in 0.00 in T in (1933)
Month to date snowfall 0.3  
Since 1 July snowfall 2.1  
Snow Depth -    
Sea Level Pressure  
Sea Level Pressure 30.10 in    
Wind  
Wind Speed 3 mph (SSE)    
Max Wind Speed 12 mph    
Max Gust Speed 18 mph    
Visibility 10 miles    
Events Rain    
T = Trace of Precipitation, MM = Missing Value Source: NWS Daily Summary

Daily Weather History Graph

Daily Weather History Graph

Search for Another Location

Airport:

Trip Planner

Search our weather history database for the weather conditions in past years. The results will help you decide how hot, cold, wet, or windy it might be!

Date:

Astronomy

Mar. 31, 2014 Rise Set
Actual Time 6:41 AM CDT 7:13 PM CDT
Civil Twilight 6:15 AM CDT 7:38 PM CDT
Nautical Twilight 5:46 AM CDT 8:08 PM CDT
Astronomical Twilight 5:16 AM CDT 8:38 PM CDT
Moon 7:07 AM CDT (3/31) 8:27 PM CDT (3/31)
Length of Visible Light 13h 22m
Length of Day
12h 31m
New Moon, 1% of the Moon is Illuminated
Mar 31
New Moon
Apr 7
First Quarter
Apr 15
Full
Apr 22
Last Quarter
Apr 29
New

Hourly Weather History & Observations

Time (CDT) Temp. Windchill Dew Point Humidity Pressure Visibility Wind Dir Wind Speed Gust Speed Precip Events Conditions
12:15 AM 40.3 °F - 37.4 °F 89% 30.14 in 10.0 mi Calm Calm - N/A   Clear
12:35 AM 40.5 °F - 37.6 °F 89% 30.15 in 10.0 mi Calm Calm - N/A   Clear
12:55 AM 40.3 °F - 37.4 °F 89% 30.15 in 10.0 mi Calm Calm - N/A   Clear
1:15 AM 38.5 °F - 36.7 °F 93% 30.15 in 10.0 mi Calm Calm - N/A   Clear
1:35 AM 38.3 °F - 36.5 °F 93% 30.15 in 10.0 mi Calm Calm - N/A   Clear
1:55 AM 37.8 °F - 36.1 °F 94% 30.15 in 10.0 mi Calm Calm - N/A   Clear
2:15 AM 37.2 °F - 36.1 °F 96% 30.14 in 10.0 mi Calm Calm - N/A   Clear
2:35 AM 36.0 °F - 34.9 °F 96% 30.14 in 10.0 mi Calm Calm - N/A   Clear
2:55 AM 36.0 °F - 35.1 °F 97% 30.14 in 10.0 mi Calm Calm - N/A   Clear
3:15 AM 35.6 °F - 34.3 °F 95% 30.13 in 10.0 mi Calm Calm - N/A   Clear
3:35 AM 35.6 °F - 34.5 °F 96% 30.13 in 10.0 mi Calm Calm - N/A   Clear
3:55 AM 35.4 °F - 34.7 °F 97% 30.13 in 10.0 mi Calm Calm - N/A   Clear
4:15 AM 34.7 °F - 33.8 °F 97% 30.12 in 10.0 mi Calm Calm - N/A   Clear
4:35 AM 35.2 °F - 34.0 °F 95% 30.13 in 10.0 mi Calm Calm - N/A   Clear
4:55 AM 34.7 °F - 33.6 °F 96% 30.13 in 10.0 mi Calm Calm - N/A   Clear
5:15 AM 33.3 °F - 32.0 °F 95% 30.13 in 10.0 mi Calm Calm - N/A   Clear
5:35 AM 34.9 °F 32.0 °F 33.8 °F 96% 30.13 in 10.0 mi ESE 3.5 mph - N/A   Clear
5:55 AM 33.3 °F - 32.2 °F 96% 30.13 in 10.0 mi Calm Calm - N/A   Clear
6:15 AM 33.8 °F - 32.4 °F 94% 30.13 in 10.0 mi Calm Calm - N/A   Clear
6:35 AM 33.1 °F 30.0 °F 32.2 °F 96% 30.14 in 10.0 mi ESE 3.5 mph - N/A   Clear
6:55 AM 33.4 °F - 32.2 °F 95% 30.15 in 10.0 mi Calm Calm - N/A   Clear
7:15 AM 34.2 °F 31.2 °F 32.9 °F 95% 30.16 in 10.0 mi ESE 3.5 mph - N/A   Clear
7:35 AM 36.7 °F 34.1 °F 33.8 °F 89% 30.16 in 10.0 mi East 3.5 mph - N/A   Clear
7:55 AM 39.9 °F 37.8 °F 35.8 °F 85% 30.16 in 10.0 mi ESE 3.5 mph - N/A   Clear
8:15 AM 44.6 °F 42.2 °F 36.5 °F 73% 30.17 in 10.0 mi East 4.6 mph - N/A   Clear
8:35 AM 48.2 °F - 37.6 °F 67% 30.17 in 10.0 mi ESE 3.5 mph - N/A   Clear
8:55 AM 51.3 °F - 38.1 °F 61% 30.18 in 10.0 mi ESE 3.5 mph - N/A   Clear
9:15 AM 55.2 °F - 39.9 °F 56% 30.18 in 10.0 mi SE 4.6 mph - N/A   Clear
9:35 AM 58.5 °F - 40.5 °F 51% 30.18 in 10.0 mi SE 4.6 mph - N/A   Clear
9:55 AM 61.0 °F - 36.0 °F 39% 30.17 in 10.0 mi SSE 9.2 mph - N/A   Clear
10:15 AM 62.1 °F - 36.3 °F 38% 30.17 in 10.0 mi SE 5.8 mph - N/A   Clear
10:35 AM 64.2 °F - 37.4 °F 37% 30.16 in 10.0 mi South 9.2 mph - N/A   Clear
10:55 AM 64.4 °F - 35.8 °F 35% 30.16 in 10.0 mi SSE 6.9 mph - N/A   Clear
11:15 AM 65.7 °F - 36.3 °F 34% 30.16 in 10.0 mi South 8.1 mph - N/A   Clear
11:35 AM 66.9 °F - 35.2 °F 31% 30.15 in 10.0 mi SSE 5.8 mph - N/A   Clear
11:55 AM 68.2 °F - 36.5 °F 31% 30.14 in 10.0 mi South 6.9 mph - N/A   Clear
12:15 PM 68.7 °F - 35.2 °F 29% 30.13 in 10.0 mi SSW 5.8 mph - N/A   Clear
12:35 PM 69.8 °F - 34.5 °F 27% 30.12 in 10.0 mi SE 5.8 mph - N/A   Clear
12:55 PM 71.1 °F - 35.8 °F 27% 30.11 in 10.0 mi SSE 9.2 mph - N/A   Clear
1:15 PM 71.4 °F - 35.4 °F 27% 30.11 in 10.0 mi South 4.6 mph - N/A   Clear
1:35 PM 71.6 °F - 34.7 °F 26% 30.10 in 10.0 mi SE 8.1 mph - N/A   Clear
1:55 PM 73.9 °F - 34.7 °F 24% 30.09 in 10.0 mi South 11.5 mph - N/A   Clear
2:15 PM 73.2 °F - 32.2 °F 22% 30.08 in 10.0 mi SSW 9.2 mph - N/A   Clear
2:35 PM 73.9 °F - 32.5 °F 22% 30.07 in 10.0 mi SSE 5.8 mph - N/A   Clear
2:55 PM 75.2 °F - 31.3 °F 20% 30.06 in 10.0 mi SSW 6.9 mph - N/A   Clear
3:15 PM 75.4 °F - 30.7 °F 19% 30.05 in 10.0 mi South 10.4 mph 17.3 mph N/A   Clear
3:30 PM 76.1 °F - 29.5 °F 18% 30.04 in 10.0 mi South 8.1 mph - N/A   Clear
3:50 PM 76.3 °F - 31.3 °F 19% 30.03 in 10.0 mi South 11.5 mph 16.1 mph N/A   Clear
4:15 PM 76.3 °F - 29.8 °F 18% 30.03 in 10.0 mi South 10.4 mph 16.1 mph N/A   Clear
4:35 PM 76.5 °F - 30.0 °F 18% 30.02 in 10.0 mi South 5.8 mph - N/A   Clear
4:55 PM 76.3 °F - 28.4 °F 17% 30.02 in 10.0 mi SSW 10.4 mph 16.1 mph N/A   Clear
5:15 PM 76.5 °F - 27.5 °F 16% 30.02 in 10.0 mi South 10.4 mph 17.3 mph N/A   Clear
5:35 PM 76.3 °F - 27.0 °F 16% 30.02 in 10.0 mi South 11.5 mph 18.4 mph N/A   Clear
5:55 PM 74.8 °F - 27.5 °F 17% 30.02 in 10.0 mi South 8.1 mph - N/A   Clear
6:15 PM 73.9 °F - 27.1 °F 18% 30.02 in 10.0 mi SSW 8.1 mph - N/A   Clear
6:35 PM 72.9 °F - 26.6 °F 18% 30.02 in 10.0 mi South 6.9 mph - N/A   Clear
6:55 PM 71.8 °F - 28.0 °F 20% 30.02 in 10.0 mi SSW 6.9 mph - N/A   Clear
7:15 PM 70.3 °F - 29.8 °F 22% 30.03 in 10.0 mi SSW 4.6 mph - N/A   Clear
7:35 PM 69.6 °F - 30.7 °F 24% 30.03 in 10.0 mi SW 3.5 mph - N/A   Clear
7:55 PM 67.5 °F - 33.8 °F 29% 30.04 in 10.0 mi SSW 3.5 mph - N/A   Clear
8:15 PM 68.7 °F - 31.6 °F 25% 30.04 in 10.0 mi SSW 3.5 mph - N/A   Scattered Clouds
8:35 PM 68.5 °F - 32.2 °F 26% 30.05 in 10.0 mi South 3.5 mph - N/A   Scattered Clouds
8:55 PM 66.2 °F - 34.5 °F 31% 30.05 in 10.0 mi South 4.6 mph - N/A   Clear
9:15 PM 66.2 °F - 33.1 °F 29% 30.05 in 10.0 mi South 3.5 mph - N/A   Clear
9:35 PM 65.5 °F - 32.5 °F 29% 30.05 in 10.0 mi SSE 4.6 mph - N/A   Clear
9:55 PM 65.7 °F - 32.7 °F 29% 30.05 in 10.0 mi SSE 5.8 mph - N/A   Clear
10:15 PM 65.7 °F - 33.1 °F 30% 30.04 in 10.0 mi SSE 6.9 mph - N/A   Clear
10:35 PM 65.5 °F - 33.8 °F 31% 30.05 in 10.0 mi South 6.9 mph - N/A   Scattered Clouds
10:55 PM 64.9 °F - 35.2 °F 33% 30.03 in 10.0 mi South 8.1 mph - N/A Rain Light Rain
11:15 PM 64.6 °F - 36.5 °F 35% 30.02 in 10.0 mi SSE 11.5 mph 16.1 mph N/A Rain Light Rain
11:35 PM 65.8 °F - 35.4 °F 32% 30.02 in 10.0 mi South 3.5 mph - N/A   Scattered Clouds
11:55 PM 67.1 °F - 35.6 °F 31% 30.02 in 10.0 mi Calm Calm - N/A Rain Light Rain